Fort Bridger AP, Fort Bridger, WY

12:59 PM MDT on August 21, 2017 (GMT -0600)
Fort Bridger

Weather History for KFBR - December, 2013

Change the Weather History Date:

Monday, December 23, 2013

  Actual Average (KEVW) Record (KEVW)
Temperature  
Mean Temperature 32 °F -  
Max Temperature 36 °F 25 °F 38 °F (2005)
Min Temperature 28 °F 13 °F -5 °F (1998)
Degree Days  
Heating Degree Days 33    
Moisture  
Dew Point 29 °F    
Average Humidity 86    
Maximum Humidity 90    
Minimum Humidity 81    
Precipitation  
Precipitation 0.00 in - - ()
Sea Level Pressure  
Sea Level Pressure 30.31 in    
Wind  
Wind Speed 21 mph (WSW)    
Max Wind Speed 31 mph    
Max Gust Speed 40 mph    
Visibility 10 miles    
Events      
Averages and records for this station are not official NWS values.
T = Trace of Precipitation, MM = Missing Value Source: NWS Daily Summary

Daily Weather History Graph

Daily Weather History Graph

Search for Another Location

Airport or City:

Trip Planner

Search our weather history database for the weather conditions in past years. The results will help you decide how hot, cold, wet, or windy it might be!

Date:

Astronomy

Dec. 23, 2013 Rise Set
Actual Time 7:45 AM MST 4:56 PM MST
Civil Twilight 7:14 AM MST 5:27 PM MST
Nautical Twilight 6:39 AM MST 6:02 PM MST
Astronomical Twilight 6:05 AM MST 6:36 PM MST
Moon 11:13 PM MST (12/23) 11:08 AM MST (12/23)
Length of Visible Light 10h 13m
Length of Day
9h 11m
Waning Gibbous, 67% of the Moon is Illuminated
Dec 23
Waning Gibbous
Dec 25
Last Quarter
Jan 1
New
Jan 7
First Quarter
Jan 15
Full

Hourly Weather History & Observations

Time (MST) Temp. Windchill Dew Point Humidity Pressure Visibility Wind Dir Wind Speed Gust Speed Precip Events Conditions
12:15 AM 28.4 °F 16.6 °F 25.9 °F 90% 30.27 in 10.0 mi WSW 16.1 mph 21.9 mph N/A   Overcast
12:35 AM 28.8 °F 15.9 °F 25.7 °F 88% 30.27 in 10.0 mi WSW 19.6 mph 23.0 mph N/A   Overcast
12:55 AM 29.1 °F 16.4 °F 25.7 °F 87% 30.27 in 10.0 mi WSW 19.6 mph 25.3 mph N/A   Overcast
1:15 AM 28.9 °F 15.8 °F 25.7 °F 88% 30.27 in 10.0 mi WSW 20.7 mph 24.2 mph N/A   Overcast
1:35 AM 28.4 °F 14.7 °F 25.3 °F 88% 30.28 in 10.0 mi West 21.9 mph 28.8 mph N/A   Overcast
1:55 AM 29.3 °F 16.2 °F 26.1 °F 88% 30.28 in 10.0 mi WSW 20.7 mph 25.3 mph N/A   Overcast
2:15 AM 29.3 °F 16.2 °F 26.1 °F 88% 30.29 in 10.0 mi WSW 20.7 mph 26.5 mph N/A   Overcast
2:35 AM 29.3 °F 17.7 °F 25.7 °F 86% 30.29 in 10.0 mi WSW 16.1 mph - N/A   Overcast
2:55 AM 29.7 °F 17.1 °F 25.7 °F 85% 30.29 in 10.0 mi WSW 19.6 mph 26.5 mph N/A   Overcast
3:15 AM 29.8 °F 17.0 °F 26.1 °F 86% 30.29 in 10.0 mi WSW 20.7 mph 25.3 mph N/A   Overcast
3:35 AM 29.7 °F 16.4 °F 26.2 °F 87% 30.30 in 10.0 mi WSW 21.9 mph 26.5 mph N/A   Overcast
3:55 AM 29.5 °F 16.8 °F 26.2 °F 88% 30.29 in 10.0 mi WSW 19.6 mph 24.2 mph N/A   Overcast
4:15 AM 28.6 °F 15.3 °F 25.7 °F 89% 30.29 in 10.0 mi WSW 20.7 mph 26.5 mph N/A   Overcast
4:35 AM 29.1 °F 16.7 °F 26.4 °F 90% 30.30 in 10.0 mi WSW 18.4 mph 26.5 mph N/A   Overcast
4:55 AM 29.7 °F 17.4 °F 26.6 °F 88% 30.30 in 10.0 mi West 18.4 mph 24.2 mph N/A   Overcast
5:15 AM 30.0 °F 17.9 °F 26.6 °F 87% 30.30 in 10.0 mi WSW 18.4 mph - N/A   Overcast
5:35 AM 29.7 °F 17.8 °F 26.6 °F 88% 30.30 in 10.0 mi West 17.3 mph 23.0 mph N/A   Overcast
5:55 AM 29.3 °F 17.0 °F 26.4 °F 89% 30.30 in 10.0 mi WSW 18.4 mph 23.0 mph N/A   Overcast
6:15 AM 30.2 °F 18.9 °F 26.8 °F 87% 30.30 in 10.0 mi WSW 16.1 mph 23.0 mph N/A   Overcast
6:35 AM 30.4 °F 18.0 °F 27.3 °F 88% 30.30 in 10.0 mi West 19.6 mph 27.6 mph N/A   Overcast
6:55 AM 31.1 °F 18.0 °F 27.9 °F 88% 30.31 in 10.0 mi West 23.0 mph 31.1 mph N/A   Overcast
7:15 AM 31.6 °F 18.4 °F 28.0 °F 87% 30.31 in 10.0 mi West 24.2 mph 32.2 mph N/A   Overcast
7:35 AM 32.0 °F 18.6 °F 28.0 °F 85% 30.32 in 10.0 mi WSW 25.3 mph 34.5 mph N/A   Overcast
7:55 AM 32.0 °F 19.5 °F 28.2 °F 86% 30.32 in 10.0 mi WSW 21.9 mph 28.8 mph N/A   Overcast
8:15 AM 32.0 °F 19.5 °F 28.0 °F 85% 30.33 in 10.0 mi WSW 21.9 mph 27.6 mph N/A   Overcast
8:35 AM 32.0 °F 19.5 °F 28.2 °F 86% 30.34 in 10.0 mi WSW 21.9 mph 31.1 mph N/A   Overcast
8:55 AM 32.4 °F 19.4 °F 28.4 °F 85% 30.34 in 10.0 mi West 24.2 mph 29.9 mph N/A   Overcast
9:15 AM 32.7 °F 21.4 °F 28.6 °F 85% 30.35 in 10.0 mi West 18.4 mph 25.3 mph N/A   Overcast
9:40 AM 33.1 °F 21.2 °F 29.1 °F 85% 30.36 in 10.0 mi West 20.7 mph 26.5 mph N/A   Overcast
9:55 AM 33.3 °F 22.1 °F 29.3 °F 85% 30.37 in 10.0 mi West 18.4 mph - N/A   Overcast
10:15 AM 33.8 °F 22.8 °F 29.8 °F 85% 30.37 in 10.0 mi WSW 18.4 mph 21.9 mph N/A   Overcast
10:35 AM 34.3 °F 23.5 °F 30.0 °F 84% 30.38 in 10.0 mi WSW 18.4 mph 24.2 mph N/A   Overcast
11:00 AM 35.1 °F 24.1 °F 30.2 °F 82% 30.38 in 10.0 mi WSW 19.6 mph 25.3 mph N/A   Overcast
11:15 AM 35.1 °F 23.5 °F 30.2 °F 82% 30.38 in 10.0 mi WSW 21.9 mph 26.5 mph N/A   Overcast
11:35 AM 35.2 °F 25.0 °F 30.4 °F 82% 30.37 in 10.0 mi WSW 17.3 mph 24.2 mph N/A   Overcast
11:55 AM 35.4 °F 24.3 °F 30.6 °F 82% 30.35 in 10.0 mi WSW 20.7 mph 25.3 mph N/A   Overcast
12:15 PM 36.0 °F 24.2 °F 30.9 °F 82% 30.34 in 10.0 mi WSW 24.2 mph 33.4 mph N/A   Overcast
12:35 PM 36.3 °F 24.2 °F 30.9 °F 81% 30.34 in 10.0 mi WSW 26.5 mph 31.1 mph N/A   Mostly Cloudy
12:55 PM 36.0 °F 24.2 °F 31.1 °F 82% 30.32 in 10.0 mi WSW 24.2 mph 36.8 mph N/A   Mostly Cloudy
1:15 PM 36.3 °F 24.2 °F 31.1 °F 81% 30.32 in 10.0 mi West 26.5 mph 35.7 mph N/A   Mostly Cloudy
1:35 PM 36.0 °F 23.2 °F 31.3 °F 83% 30.32 in 10.0 mi West 28.8 mph 35.7 mph N/A   Overcast
1:55 PM 35.8 °F 22.5 °F 31.8 °F 86% 30.32 in 10.0 mi West 31.1 mph 39.1 mph N/A   Overcast
2:15 PM 35.6 °F 23.0 °F 31.6 °F 85% 30.33 in 10.0 mi West 27.6 mph 36.8 mph N/A   Overcast
2:35 PM 35.1 °F 22.0 °F 31.6 °F 87% 30.33 in 10.0 mi West 28.8 mph 38.0 mph N/A   Overcast
2:55 PM 34.7 °F 21.5 °F 31.8 °F 89% 30.33 in 10.0 mi West 28.8 mph 36.8 mph N/A   Overcast
3:15 PM 34.7 °F 21.8 °F 31.8 °F 89% 30.33 in 10.0 mi West 27.6 mph 36.8 mph N/A   Overcast
3:35 PM 34.7 °F 22.5 °F 31.8 °F 89% 30.34 in 10.0 mi WSW 24.2 mph 33.4 mph N/A   Overcast
3:55 PM 34.7 °F 22.5 °F 31.8 °F 89% 30.33 in 10.0 mi WSW 24.2 mph 31.1 mph N/A   Overcast
4:15 PM 34.7 °F 22.2 °F 31.8 °F 89% 30.34 in 10.0 mi WSW 25.3 mph 32.2 mph N/A   Overcast
4:35 PM 34.7 °F 24.0 °F 31.6 °F 89% 30.34 in 10.0 mi WSW 18.4 mph 23.0 mph N/A   Overcast
4:55 PM 34.9 °F 22.5 °F 31.6 °F 88% 30.33 in 10.0 mi WSW 25.3 mph 35.7 mph N/A   Overcast
5:15 PM 34.7 °F 22.2 °F 31.6 °F 89% 30.32 in 10.0 mi WSW 25.3 mph 31.1 mph N/A   Overcast
5:35 PM 34.2 °F 21.3 °F 31.5 °F 90% 30.33 in 10.0 mi West 26.5 mph 32.2 mph N/A   Mostly Cloudy
5:55 PM 34.3 °F 23.2 °F 31.5 °F 89% 30.32 in 10.0 mi WSW 19.6 mph 29.9 mph N/A   Overcast
6:15 PM 33.8 °F 21.9 °F 30.9 °F 89% 30.31 in 10.0 mi WSW 21.9 mph 31.1 mph N/A   Scattered Clouds
6:35 PM 34.0 °F 22.1 °F 30.9 °F 89% 30.30 in 10.0 mi WSW 21.9 mph 29.9 mph N/A   Scattered Clouds
6:55 PM 34.2 °F 22.1 °F 31.1 °F 89% 30.31 in 10.0 mi WSW 23.0 mph 28.8 mph N/A   Scattered Clouds
7:15 PM 34.7 °F 24.0 °F 31.1 °F 87% 30.31 in 10.0 mi WSW 18.4 mph 25.3 mph N/A   Overcast
7:35 PM 34.5 °F 22.5 °F 30.9 °F 87% 30.31 in 10.0 mi WSW 23.0 mph 29.9 mph N/A   Overcast
7:55 PM 34.0 °F 21.0 °F 30.6 °F 87% 30.30 in 10.0 mi WSW 26.5 mph 33.4 mph N/A   Mostly Cloudy
8:15 PM 34.2 °F 20.6 °F 30.9 °F 88% 30.29 in 10.0 mi WSW 29.9 mph 40.3 mph N/A   Mostly Cloudy
8:35 PM 33.8 °F 20.1 °F 30.9 °F 89% 30.28 in 10.0 mi WSW 29.9 mph 34.5 mph N/A   Scattered Clouds
8:55 PM 33.8 °F 20.5 °F 30.9 °F 89% 30.28 in 10.0 mi WSW 27.6 mph 38.0 mph N/A   Clear
9:15 PM 33.8 °F 20.8 °F 30.0 °F 86% 30.27 in 10.0 mi WSW 26.5 mph 33.4 mph N/A   Clear
9:35 PM 33.6 °F 21.1 °F 29.8 °F 86% 30.27 in 10.0 mi West 24.2 mph 36.8 mph N/A   Clear
9:55 PM 33.3 °F 20.6 °F 29.8 °F 87% 30.26 in 10.0 mi West 24.2 mph 32.2 mph N/A   Clear
10:15 PM 33.3 °F 20.1 °F 29.7 °F 87% 30.25 in 10.0 mi WSW 26.5 mph 33.4 mph N/A   Clear
10:35 PM 33.8 °F 20.3 °F 29.8 °F 85% 30.25 in 10.0 mi WSW 28.8 mph 36.8 mph N/A   Scattered Clouds
10:55 PM 34.0 °F 20.8 °F 29.8 °F 85% 30.24 in 10.0 mi WSW 27.6 mph 36.8 mph N/A   Scattered Clouds
11:15 PM 33.6 °F 20.8 °F 29.5 °F 85% 30.24 in 10.0 mi West 25.3 mph 34.5 mph N/A   Scattered Clouds
11:35 PM 33.8 °F 21.3 °F 29.3 °F 84% 30.24 in 10.0 mi West 24.2 mph 29.9 mph N/A   Scattered Clouds
11:55 PM 34.2 °F 21.8 °F 29.3 °F 82% 30.22 in 10.0 mi WSW 24.2 mph 33.4 mph N/A   Scattered Clouds